9W2KHE-13 Weather Reports


time (UTC)temp
F
wind
direction
speed
knots
gust
knots
rain 1hr
in
rain 24hr
in
rain mn
in
humidity
%
barometer
mb
20260504172947 85 135 0.0 0.0 0.00 0.00 0.00 69 1012.2
20260504172446 85 135 0.0 0.0 0.00 0.00 0.00 69 1012.3
20260504171947 85 135 0.0 0.0 0.00 0.00 0.00 69 1012.4
20260504171445 85 135 0.0 0.0 0.00 0.00 0.00 69 1012.5
20260504170943 85 135 0.0 0.0 0.00 0.00 0.00 68 1012.4
20260504160432 86 135 0.0 0.0 0.00 0.00 0.00 68 1012.8
20260504150917 86 135 0.0 0.0 0.00 0.00 0.00 68 1012.4
20260504150417 86 135 0.0 0.0 0.00 0.00 0.00 68 1012.4
20260504140906 86 135 0.0 0.0 0.00 0.00 0.00 67 1011.9
20260504130351 86 135 0.0 0.0 0.00 0.00 0.00 66 1011.3
20260504110332 87 146 0.0 0.0 0.00 0.00 0.00 64 1010.4
20260504081752 89 135 0.0 0.0 0.00 0.00 0.00 60 1009.7
20260504081258 89 135 0.0 0.0 0.00 0.00 0.00 60 1009.7
20260504080756 90 157 0.0 0.0 0.00 0.00 0.00 60 1009.9
20260504080248 90 135 0.0 0.0 0.00 0.00 0.00 61 1010.3
20260504070236 91 135 0.0 0.0 0.00 0.00 0.00 59 1010.5
20260504050711 93 180 0.0 0.0 0.00 0.00 0.00 56 1012.0
20260504045712 92 146 0.0 0.0 0.00 0.00 0.00 56 1012.1
20260504045215 92 139 0.0 0.0 0.00 0.00 0.00 57 1012.2
20260504044710 92 136 0.0 0.0 0.00 0.00 0.00 58 1012.3
20260504044206 92 157 0.0 0.0 0.00 0.00 0.00 58 1012.4
20260504041701 91 148 0.0 0.0 0.00 0.00 0.00 60 1012.8
20260504041202 90 135 0.0 0.0 0.00 0.00 0.00 60 1012.8
20260504040659 90 148 0.0 0.0 0.00 0.00 0.00 61 1012.9
20260504040158 90 146 0.0 0.0 0.00 0.00 0.00 61 1013.0
20260504034655 89 148 0.0 0.0 0.00 0.00 0.00 63 1013.1
20260504033653 89 135 0.0 0.0 0.00 0.00 0.00 65 1013.0
20260504033154 88 152 0.0 0.0 0.00 0.00 0.00 65 1013.1
20260504032650 88 143 0.0 0.0 0.00 0.00 0.00 65 1013.1
20260504032149 88 137 0.0 0.0 0.00 0.00 0.00 66 1013.2
20260504031648 88 135 0.0 0.0 0.00 0.00 0.00 66 1013.2
20260504031148 88 135 0.0 0.0 0.00 0.00 0.00 67 1013.3
20260504030145 87 135 0.0 0.0 0.00 0.00 0.00 67 1013.4
20260504025644 87 135 0.0 0.0 0.00 0.00 0.00 68 1013.5
20260504025143 87 135 0.0 0.0 0.00 0.00 0.00 68 1013.4
20260504024642 87 135 0.0 0.0 0.00 0.00 0.00 68 1013.4
20260504023640 86 135 0.0 0.0 0.00 0.00 0.00 69 1013.5
20260504023139 86 135 0.0 0.0 0.00 0.00 0.00 69 1013.5
20260504022137 86 135 0.0 0.0 0.00 0.00 0.00 69 1013.5
20260504021637 85 157 0.0 0.0 0.00 0.00 0.00 70 1013.5
20260504021135 85 148 0.0 0.0 0.00 0.00 0.00 70 1013.5
20260504015632 85 135 0.0 0.0 0.00 0.00 0.00 70 1013.5
20260504014128 84 142 0.0 0.0 0.00 0.00 0.00 70 1013.5
20260504013630 84 135 0.0 0.0 0.00 0.00 0.00 70 1013.5
20260504013127 84 141 0.0 0.0 0.00 0.00 0.00 71 1013.4
20260504012627 84 135 0.0 0.0 0.00 0.00 0.00 71 1013.4
20260504012125 84 135 0.0 0.0 0.00 0.00 0.00 71 1013.3
20260504011623 84 136 0.0 0.0 0.00 0.00 0.00 71 1013.2
20260504011122 83 157 0.0 0.0 0.00 0.00 0.00 71 1013.2
20260504010621 83 135 0.0 0.0 0.00 0.00 0.00 71 1013.0
20260504010121 83 157 0.0 0.0 0.00 0.00 0.00 71 1013.1
20260504005619 83 135 0.0 0.0 0.00 0.00 0.00 71 1012.9
20260504004617 83 135 0.0 0.0 0.00 0.00 0.00 71 1012.8
20260504001611 83 157 0.0 0.0 0.00 0.00 0.00 71 1012.3
20260504001110 83 135 0.0 0.0 0.00 0.00 0.00 71 1012.3
20260503235606 83 135 0.0 0.0 0.00 0.00 0.00 71 1012.2
20260503234606 83 135 0.0 0.0 0.00 0.00 0.00 71 1012.1
20260503231057 83 135 0.0 0.0 0.00 0.00 0.00 71 1011.6
20260503230556 83 135 0.0 0.0 0.00 0.00 0.00 71 1011.5
20260503230055 83 135 0.0 0.0 0.00 0.00 0.00 71 1011.5
20260503225554 83 135 0.0 0.0 0.00 0.00 0.00 71 1011.6
20260503224552 83 135 0.0 0.0 0.00 0.00 0.00 71 1011.5
20260503223550 83 135 0.0 0.0 0.00 0.00 0.00 71 1011.4
20260503223055 83 135 0.0 0.0 0.00 0.00 0.00 71 1011.3
20260503222548 83 135 0.0 0.0 0.00 0.00 0.00 71 1011.2
20260503222046 83 135 0.0 0.0 0.00 0.00 0.00 71 1011.1
20260503221045 83 135 0.0 0.0 0.00 0.00 0.00 71 1011.1
20260503220545 83 135 0.0 0.0 0.00 0.00 0.00 71 1011.1
20260503220042 83 135 0.0 0.0 0.00 0.00 0.00 71 1011.0
20260503215541 83 135 0.0 0.0 0.00 0.00 0.00 71 1011.0
20260503215040 83 135 0.0 0.0 0.00 0.00 0.00 71 1010.9
20260503214539 83 135 0.0 0.0 0.00 0.00 0.00 71 1010.9
20260503213543 83 135 0.0 0.0 0.00 0.00 0.00 71 1010.8
20260503213036 83 135 0.0 0.0 0.00 0.00 0.00 71 1010.9
20260503212535 83 135 0.0 0.0 0.00 0.00 0.00 71 1011.0
20260503212034 83 135 0.0 0.0 0.00 0.00 0.00 71 1011.0
20260503211046 83 157 0.0 0.0 0.00 0.00 0.00 71 1011.0
20260503210531 83 135 0.0 0.0 0.00 0.00 0.00 71 1011.0
20260503205529 83 135 0.0 0.0 0.00 0.00 0.00 71 1010.9
20260503204025 83 157 0.0 0.0 0.00 0.00 0.00 71 1010.9
20260503203531 83 157 0.0 0.0 0.00 0.00 0.00 71 1011.0
20260503202525 83 157 0.0 0.0 0.00 0.00 0.00 70 1011.0
20260503202021 83 157 0.0 0.0 0.00 0.00 0.00 70 1010.9
20260503201520 83 135 0.0 0.0 0.00 0.00 0.00 70 1011.0
20260503201019 83 135 0.0 0.0 0.00 0.00 0.00 70 1010.9
20260503200518 83 157 0.0 0.0 0.00 0.00 0.00 70 1011.0
20260503194514 83 135 0.0 0.0 0.00 0.00 0.00 70 1011.1
20260503194013 83 139 0.0 0.0 0.00 0.00 0.00 70 1011.2
20260503193513 83 135 0.0 0.0 0.00 0.00 0.00 70 1011.2
20260503193011 83 135 0.0 0.0 0.00 0.00 0.00 70 1011.1
20260503192510 84 157 0.0 0.0 0.00 0.00 0.00 69 1011.2
20260503192009 84 135 0.0 0.0 0.00 0.00 0.00 69 1011.2
20260503191508 84 135 0.0 0.0 0.00 0.00 0.00 69 1011.2
20260503185504 85 135 0.0 0.0 0.00 0.00 0.00 68 1011.3
20260503185003 85 135 0.0 0.0 0.00 0.00 0.00 68 1011.3
20260503184502 85 135 0.0 0.0 0.00 0.00 0.00 68 1011.3
20260503184001 85 147 0.0 0.0 0.00 0.00 0.00 68 1011.3
20260503182959 85 136 0.0 0.0 0.00 0.00 0.00 68 1011.5
20260503182500 85 157 0.0 0.0 0.00 0.00 0.00 68 1011.7
20260503181957 85 135 0.0 0.0 0.00 0.00 0.00 68 1011.6
20260503181456 85 135 0.0 0.0 0.00 0.00 0.00 68 1011.5
20260503180956 85 135 0.0 0.0 0.00 0.00 0.00 68 1011.5
20260503180454 85 135 0.0 0.0 0.00 0.00 0.00 68 1011.5
20260503175952 85 135 0.0 0.0 0.00 0.00 0.00 68 1011.5
20260503175452 85 157 0.0 0.0 0.00 0.00 0.00 68 1011.6
20260503174951 85 135 0.0 0.0 0.00 0.00 0.00 68 1011.7